Regional Weather Roundup
Issued by NWS

Home | Current Version | Previous Version | Graphics & Text | Print | Product List | Glossary On
Versions: 1 2 3 4 5 6 7 8 9 10 11 12 13 14 15 16 17 18 19 20 21 22 23 24 25 26 27 28 29 30
000
ASUS45 KGTF 020810
RWRMT
MONTANA HOURLY WEATHER ROUNDUP
NATIONAL WEATHER SERVICE GREAT FALLS MT
200 AM MDT SAT MAY 02 2015

NOTE: "FAIR" INDICATES FEW OR NO CLOUDS BELOW 12000 FEET WITH NO
SIGNIFICANT WEATHER AND/OR OBSTRUCTIONS TO VISIBILITY.

MTZ001>007-043-020900-
WEST OF THE DIVIDE

CITY           SKY/WX    TMP DP  RH WIND       PRES   REMARKS
KALISPELL      PTSUNNY   49  32  52 S5        29.76F
MISSOULA       PTCLDY    48  29  47 SE9       29.84F
BUTTE          PTCLDY    38  26  62 CALM      29.93S
DEER LODGE       N/A     46  28  49 SW8       29.90F
EUREKA           N/A     52  36  54 E6          N/A
HAMILTON         N/A     50  28  43 S8        29.86F
LIBBY            N/A     59  32  36 SW3       29.74S
$$

MTZ008-052>055-020900-
SOUTHWEST MONTANA

CITY           SKY/WX    TMP DP  RH WIND       PRES   REMARKS
BOZEMAN        PTCLDY    43  30  60 SE9       29.88F
DILLON         MOCLDY    49  22  34 S12       29.92S
$$

MTZ009-010-012-014-046-048-049-054-020900-
EAST SLOPES AND CENTRAL MONTANA

CITY           SKY/WX    TMP DP  RH WIND       PRES   REMARKS
CUT BANK       CLOUDY    45  27  49 N14       29.76R
GREAT FALLS    CLOUDY    55  22  27 S13       29.77F
MALMSTROM AFB  CLOUDY    52  25  34 SW12      29.77F
HELENA         PTCLDY    49  21  33 SW5       29.82F
$$

MTZ011-013-016-021-045-047-050-051-020900-
NORTH CENTRAL MONTANA

CITY           SKY/WX    TMP DP  RH WIND       PRES   REMARKS
HAVRE          CLOUDY    52  30  43 W9        29.72S
LEWISTOWN      CLOUDY    51  27  39 CALM      29.81F
CHINOOK          N/A     52  30  43 SW5       29.72S
FORT BENTON      N/A     59  25  27 S5        29.73F
$$

MTZ017>020-022>042-056>058-061-062-020900-
EASTERN PLAINS

CITY           SKY/WX    TMP DP  RH WIND       PRES   REMARKS
BAKER          PTCLDY    49  35  58 E3        29.79F
BILLINGS       MOCLDY    53  30  41 SW13      29.80F
GLASGOW        MOCLDY    51  34  52 CALM      29.70F
JORDAN           N/A     41  36  82 CALM      29.74F
LIVINGSTON     PTCLDY    38  26  62 SW8       29.87S
MILES CITY     PTCLDY    56  30  37 SE8       29.75F
SIDNEY         MOCLDY    43  34  70 S6        29.74F
WOLF POINT     CLOUDY    53  34  48 S7        29.70F
BIG TIMBER       N/A     46  25  42 CALM      29.86S
FORSYTH          N/A     54  32  43 CALM      29.74F
PLENTYWOOD       N/A     61  30  31 S9        29.70F
POPLAR           N/A     50  34  53 N3        29.71F
$$

REGIONAL REPORTS...DAKOTAS

CITY           SKY/WX    TMP DP  RH WIND       PRES   REMARKS
WILLISTON      MOCLDY    49  34  56 S3        29.73F
MINOT          CLEAR     51  33  50 S10       29.73F
DICKINSON      PTCLDY    43  32  65 S8        29.78F
BEACH          FAIR      45  32  61 S9        29.78F
CROSBY         FAIR      50  34  53 S13       29.70F
WATFORD CITY   FAIR      45  32  61 CALM      29.73F
BISMARCK       MOCLDY    48  33  56 CALM      29.81F
GRAND FORKS    MOCLDY    55  36  48 S12       29.78F
FARGO          CLEAR     57  32  38 S10       29.84F
BUFFALO SD       N/A     52  34  50 S9        29.77F
RAPID CITY     CLEAR     51  34  52 S5        29.88F
$$

REGIONAL REPORTS...WYOMING/IDAHO/WASHINGTON

CITY           SKY/WX    TMP DP  RH WIND       PRES   REMARKS
GILLETTE       CLEAR     54  39  57 S20       29.86F
SHERIDAN       PTCLDY    47  30  51 VRB3      29.82F
BUFFALO WY     PTCLDY    54  22  28 S5        29.89S
CODY           PTCLDY    54  19  26 SW12      29.90F
YELLOWSTONE LA   N/A     27  21  78 CALM      30.07S
IDAHO FALLS    CLEAR     54  29  38 S8        29.95S
SALMON         MOCLDY    45  30  57 CALM      29.91S
BOISE          CLEAR     57  25  29 SE8       29.86S
SPOKANE        CLOUDY    53  30  41 W13       29.81R
$$

REGIONAL REPORTS...ALBERTA

CITY           SKY/WX    TMP DP  RH WIND       PRES   REMARKS
EDMONTON       PTCLDY    43  32  65 W14       29.75R
CALGARY        MOCLDY    39  34  81 NW6       29.82R
LETHBRIDGE     MOCLDY    41  37  87 W7        29.79F
MEDICINE HAT   MOCLDY    48  39  71 N5        29.75R
$$

REGIONAL REPORTS...SASKATCHEWAN

CITY           SKY/WX    TMP DP  RH WIND       PRES   REMARKS
SWIFT CURRENT  MOCLDY    48  36  61 N15G25    29.69R
REGINA         PTCLDY    41  34  75 SW5       29.63F
SASKATOON      MOCLDY    45  39  81 N13       29.64R
$$



USA.gov is the U.S. government's official web portal to all federal, state and local government web resources and services.